Regional Weather Roundup
Issued by NWS

Home | Current Version | Previous Version | Graphics & Text | Print | Product List | Glossary On
Versions: 1 2 3 4 5 6 7 8 9 10 11 12 13 14 15 16 17 18 19 20 21 22 23 24 25 26 27 28 29 30 31 32 33 34 35 36 37 38 39 40 41 42 43 44 45 46 47 48 49 50
000
ASUS43 KFSD 261110
RWRSD

WEATHER ROUNDUP FOR SOUTH DAKOTA
NATIONAL WEATHER SERVICE SIOUX FALLS SD
500 AM CST SUN FEB 26 2017

NOTE: "FAIR" INDICATES FEW OR NO CLOUDS BELOW 12,000 FEET WITH NO
SIGNIFICANT WEATHER AND/OR OBSTRUCTIONS TO VISIBILITY.


SDZ001>005-009-010-012>017-261200-
NORTHWEST AND NORTH CENTRAL SOUTH DAKOTA

CITY           SKY/WX    TMP DP  RH WIND       PRES   REMARKS
BUFFALO          N/A     18  11  74 W10       29.60R WCI   6
FAITH            N/A     20  16  84 W10       29.70S WCI   9
MOBRIDGE       MOCLDY    21  16  81 NW8       29.71R WCI  11
$$

SDZ012>016-024>037-041>051-057-063-072>074-261200-
SOUTHWEST AND SOUTH CENTRAL SOUTH DAKOTA

CITY           SKY/WX    TMP DP  RH WIND       PRES   REMARKS
RAPID CTY ARPT PTCLDY    21  11  65 W10       29.72S WCI  10
PIERRE         CLEAR     24  19  81 W10       29.74R WCI  14
CUSTER         CLEAR     11   7  84 W7        29.64F WCI   0
ELLSWORTH AFB  MOCLDY    14   9  78 W9        29.72R WCI   2
PHILIP         CLEAR     18  14  84 W8        29.76S WCI   8
PINE RIDGE     CLEAR     16   6  65 W6        29.79R WCI   7
SPEARFISH      FAIR      23  10  58 W10       29.69R WCI  12
WINNER         FAIR      20  12  71 W6        29.77R WCI  12
$$

SDZ004>011-016>023-039-040-261200-
NORTHEAST SOUTH DAKOTA

CITY           SKY/WX    TMP DP  RH WIND       PRES   REMARKS
ABERDEEN       PTCLDY    23  18  81 NW10      29.72R WCI  12
WATERTOWN      PTCLDY    23  22  96 W8        29.68S WCI  14
BROOKINGS      PTCLDY    18  16  92 SW5       29.71R WCI  11
SISSETON         N/A     29  25  85 NW21G29   29.68R WCI  16
$$

SDZ017-020-022-023-036>040-048>070-261200-
SOUTHEAST SOUTH DAKOTA

CITY           SKY/WX    TMP DP  RH WIND       PRES   REMARKS
SIOUX FALLS    PTCLDY    18  15  88 SW5       29.76R WCI  11
HURON          CLEAR     23  20  88 W9        29.74R WCI  13
CHAMBERLAIN    CLEAR     22  18  83 W9        29.77R WCI  12
MITCHELL       CLEAR     24  18  77 W12       29.77R WCI  13
YANKTON        CLEAR     19  14  79 SW8       29.79R WCI   9
$$

ABBREVIATIONS USED IN REMARKS
   TC - TEMPERATURE IN CELSIUS
  WCI - WIND CHILL INDEX
   HX - HEAT INDEX
  VSB - VISIBILITY





USA.gov is the U.S. government's official web portal to all federal, state and local government web resources and services.